Weather History for Santa Rosa, CA

Change the Weather History Date:

Friday, January 3, 2014

  Actual Average Record
Temperature  
Mean Temperature 51 °F 46 °F  
Max Temperature 70 °F 56 °F 64 °F (2012)
Min Temperature 31 °F 36 °F 26 °F (2013)
Degree Days  
Heating Degree Days 14    
Month to date heating degree days 51  
Since 1 July heating degree days 1162  
Cooling Degree Days 0    
Month to date cooling degree days 0  
Year to date cooling degree days 0  
Moisture  
Dew Point 36 °F    
Average Humidity 66    
Maximum Humidity 100    
Minimum Humidity 31    
Precipitation  
Precipitation 0.00 in 0.30 in 1.76 in (2008)
Month to date precipitation 0.00 0.95  
Year to date precipitation 0.00 0.95  
Since 1 July precipitation 2.02 15.14  
Sea Level Pressure  
Sea Level Pressure 29.99 in    
Wind  
Wind Speed 2 mph (South)    
Max Wind Speed 9 mph    
Max Gust Speed 11 mph    
Visibility 10 miles    
Events Fog    
T = Trace of Precipitation, MM = Missing Value Source: NWS Daily Summary

Daily Weather History Graph

Daily Weather History Graph

Search for Another Location

Airport:

Trip Planner

Search our weather history database for the weather conditions in past years. The results will help you decide how hot, cold, wet, or windy it might be!

Date:

Astronomy

Jan. 03, 2014 Rise Set
Actual Time 7:28 AM PST 5:02 PM PST
Civil Twilight 6:59 AM PST 5:32 PM PST
Nautical Twilight 6:26 AM PST 6:05 PM PST
Astronomical Twilight 5:54 AM PST 6:37 PM PST
Moon 9:01 AM PST (1/3) 8:16 PM PST (1/3)
Length of Visible Light 10h 33m
Length of Day
9h 33m
Waxing Crescent, 8% of the Moon is Illuminated
Jan 3
Waxing Crescent
Jan 7
First Quarter
Jan 15
Full
Jan 23
Last Quarter
Jan 30
New

Hourly Weather History & Observations

Time (PST) Temp. Windchill Dew Point Humidity Pressure Visibility Wind Dir Wind Speed Gust Speed Precip Events Conditions
12:53 AM 37.9 °F - 36.0 °F 93% 30.04 in 10.0 mi Calm Calm - N/A   Clear
1:53 AM 36.0 °F - 34.0 °F 93% 30.04 in 10.0 mi Calm Calm - N/A   Clear
2:53 AM 35.1 °F - 33.1 °F 92% 30.04 in 10.0 mi Calm Calm - N/A   Clear
3:53 AM 34.0 °F - 32.0 °F 92% 30.04 in 10.0 mi Calm Calm - N/A   Clear
4:53 AM 34.0 °F 31.0 °F 33.1 °F 96% 30.03 in 10.0 mi NNE 3.5 mph - N/A   Clear
5:53 AM 33.1 °F - 32.0 °F 96% 30.03 in 8.0 mi Calm Calm - N/A   Clear
6:53 AM 34.0 °F - 33.1 °F 96% 30.04 in 10.0 mi Calm Calm - N/A   Scattered Clouds
7:53 AM 32.0 °F - 30.9 °F 96% 30.05 in 10.0 mi Calm Calm - N/A Fog Patches of Fog
8:53 AM 39.0 °F - 37.0 °F 93% 30.05 in 10.0 mi Calm Calm - N/A Fog Patches of Fog
9:53 AM 46.0 °F - 39.0 °F 76% 30.06 in 10.0 mi Calm Calm - N/A   Scattered Clouds
10:53 AM 54.0 °F - 39.0 °F 57% 30.04 in 10.0 mi Calm Calm - N/A   Partly Cloudy
11:53 AM 61.0 °F - 37.9 °F 42% 30.00 in 10.0 mi Calm Calm - N/A   Partly Cloudy
12:53 PM 64.0 °F - 37.0 °F 37% 29.96 in 10.0 mi Calm Calm - N/A   Partly Cloudy
1:53 PM 68.0 °F - 37.0 °F 32% 29.95 in 10.0 mi SSE 4.6 mph - N/A   Scattered Clouds
2:53 PM 69.1 °F - 37.0 °F 31% 29.94 in 10.0 mi South 4.6 mph - N/A   Scattered Clouds
3:53 PM 69.1 °F - 37.9 °F 32% 29.93 in 10.0 mi SSE 5.8 mph - N/A   Partly Cloudy
4:53 PM 61.0 °F - 37.9 °F 42% 29.92 in 10.0 mi South 5.8 mph - N/A   Partly Cloudy
5:53 PM 55.0 °F - 37.0 °F 51% 29.93 in 10.0 mi SSE 5.8 mph - N/A   Clear
6:53 PM 53.1 °F - 37.9 °F 57% 29.94 in 10.0 mi Calm Calm - N/A   Clear
7:53 PM 48.0 °F - 37.0 °F 66% 29.94 in 10.0 mi SSW 3.5 mph - N/A   Clear
8:53 PM 46.9 °F - 37.9 °F 71% 29.95 in 10.0 mi Calm Calm - N/A   Clear
9:53 PM 41.0 °F - 36.0 °F 82% 29.96 in 10.0 mi Calm Calm - N/A   Clear
10:53 PM 39.9 °F - 36.0 °F 86% 29.98 in 10.0 mi Calm Calm - N/A   Clear
11:53 PM 37.9 °F 35.5 °F 35.1 °F 89% 29.97 in 10.0 mi NW 3.5 mph - N/A   Clear